[[{"header":{"parameterUnit":"m.s-1","parameterCategory":1,"la1":30.2991,"la2":30.254,"lo1":-89.0895,"lo2":-89.0444,"dy":0.0017,"dx":0.0017,"nx":28,"ny":28,"refTime":"2023-08-26T09:00:00:Z","depth":0,"parameterNumber":2,"parameterNumberName":"U-component_of_WINDS"},"data":[0,0,0,0,0,0,0,0,0,0,0,0,0,0,0,0,0,0,0,0,0,0,0,0,0,0,0,0,0,0,0,0,0,0,0,0,0,0,0,0,0,0,0,0,0,0,0,0,0,0,0,0,0,0,0,0,0,0,0.4746,0.4748,0,0.4949,0.4951,0.4953,0.4957,0.4954,0.4952,0.495,0.5165,0.5173,0.5181,0,0,0,0,0,0,0,0,0,0,0,0,0,0.437,0.4376,0.4745,0.4748,0.4751,0.4948,0.4951,0.4954,0.4958,0.4954,0.4951,0.4948,0.5162,0.5172,0.5182,0,0,0,0,0,0,0,0,0,0,0,0,0,0.4549,0.4379,0.4745,0.4776,0.4781,0.4948,0.4951,0.4955,0.4958,0.4954,0.495,0.4947,0.5159,0.5171,0.5183,0.5335,0,0,0.522,0.5225,0,0,0,0,0,0,0,0,0.4539,0.4563,0.4769,0.4774,0.478,0.4923,0.4897,0.5082,0.4959,0.4891,0.4949,0.4945,0.5088,0.5106,0.5153,0.5345,0.5354,0.5221,0.5229,0.5234,0.5237,0,0,0,0,0,0,0,0.4526,0.4554,0.4826,0.4772,0.4779,0.4783,0.4804,0.4933,0.5009,0.4897,0.4897,0.4921,0.509,0.5141,0.5158,0.5357,0.5221,0.5232,0.5239,0.5244,0.5688,0.5692,0,0,0,0,0,0,0.4507,0.4544,0.482,0.4832,0.4647,0.4792,0.4816,0.4881,0.5007,0.5023,0.4924,0.492,0.5122,0.5144,0.5165,0.5354,0.5234,0.5245,0.5252,0.5683,0.5689,0.5694,0,0,0,0,0,0,0.4498,0.4531,0.4811,0.4688,0.4724,0.4803,0.4876,0.4887,0.4938,0.5028,0.5042,0.4961,0.512,0.5148,0.5293,0.5361,0.5251,0.5262,0.5678,0.5685,0.5691,0.5731,0,0,0,0,0,0,0.4488,0.4528,0.4585,0.4689,0.4731,0.4933,0.488,0.4894,0.4958,0.4955,0.5067,0.5082,0.5119,0.5275,0.5305,0.5376,0.5271,0.5672,0.5681,0.5689,0.5724,0.5738,0.575,0,0,0,0,0,0.4474,0.4589,0.4587,0.4621,0.4802,0.4937,0.4961,0.5,0.4963,0.5022,0.5081,0.5078,0.5348,0.5289,0.5324,0.5399,0.5668,0.5679,0.5689,0.5718,0.5735,0.575,0,0,0,0,0,0,0.4492,0.4603,0.4603,0.4754,0.4836,0.4937,0.5013,0.5016,0.5112,0.5106,0.5152,0.5178,0.5322,0.5375,0.5307,0.5555,0.5505,0.5522,0.5515,0.5532,0.5545,0.5531,0.5281,0,0,0,0,0,0.4513,0.461,0.4703,0.4828,0.4868,0.4933,0.4993,0.5016,0.5104,0.5139,0.5208,0.5296,0.5401,0.5469,0.557,0.5731,0.5757,0.58,0.5813,0.5823,0.5839,0.5931,0.5952,0.5727,0.5727,0.5727,0,0,0.4558,0.4631,0.469,0.4833,0.4899,0.5002,0.4963,0.5073,0.5151,0.5157,0.5298,0.5351,0.5452,0.5606,0.5677,0.5655,0.5907,0.5836,0.5844,0.5854,0.5943,0.5965,0.5983,0.5734,0.5733,0.5731,0,0,0.4694,0.4757,0.4869,0.4936,0.5036,0.5079,0.5106,0.5207,0.5243,0.5384,0.5392,0.5486,0.5665,0.5738,0.5798,0.5963,0.5965,0.5994,0.6065,0.6153,0.6171,0.6187,0.6249,0.627,0.6009,0.6009,0.6009,0,0.4739,0.4891,0.4927,0.5038,0.5102,0.511,0.5226,0.529,0.5419,0.5464,0.5436,0.5663,0.5731,0.5903,0.5943,0.5991,0.6026,0.5983,0.6165,0.6182,0.6197,0.6257,0.6279,0.6012,0.6012,0.6011,0.6011,0,0.4943,0.5049,0.5128,0.525,0.5323,0.5436,0.5491,0.5561,0.5578,0.5625,0.5771,0.5853,0.5972,0.6014,0.6032,0.619,0.6173,0.6155,0.6106,0.6221,0.6278,0.6301,0.6017,0.6015,0.6015,0.6014,0,0,0.5096,0.5237,0.5266,0.5323,0.5434,0.5518,0.5632,0.5747,0.5808,0.5897,0.5996,0.6148,0.6132,0.62,0.6226,0.6304,0.6433,0.6277,0.628,0.6305,0.6616,0.6631,0.6656,0.6434,0.6438,0.6442,0.6608,0,0.5246,0.5447,0.5483,0.566,0.576,0.577,0.587,0.5951,0.5998,0.6092,0.6145,0.6253,0.6222,0.6263,0.634,0.6401,0.6496,0.6389,0.6531,0.6535,0.6507,0.6685,0.6701,0.6854,0.663,0.6634,0.6637,0,0.5448,0.554,0.5726,0.5826,0.587,0.5959,0.6068,0.6157,0.625,0.6279,0.6355,0.6373,0.6496,0.6439,0.661,0.6537,0.6597,0.6635,0.6642,0.6659,0.6594,0.671,0.6904,0.6927,0.6672,0.6669,0.6666,0,0.5544,0.5716,0.585,0.5898,0.6017,0.608,0.6133,0.6222,0.6289,0.6385,0.643,0.654,0.6601,0.6687,0.6735,0.6689,0.6904,0.6851,0.6935,0.6934,0.6981,0.6978,0.719,0.7016,0.7015,0.7015,0.7014,0,0.5709,0.5824,0.5895,0.5978,0.6107,0.6149,0.6276,0.6329,0.6408,0.6504,0.6519,0.6609,0.6666,0.6765,0.6803,0.6941,0.6968,0.6997,0.7007,0.6998,0.6994,0.7039,0.7031,0.7021,0.702,0.7018,0.7017,0,0.584,0.5892,0.6039,0.6139,0.6167,0.6259,0.6346,0.6429,0.6475,0.6596,0.6627,0.6701,0.6819,0.6875,0.7021,0.7047,0.7204,0.7205,0.7172,0.7176,0.7258,0.725,0.7508,0.7545,0.7344,0.7345,0.7347,0,0.5943,0.6031,0.614,0.6204,0.6258,0.6361,0.643,0.6475,0.6546,0.666,0.673,0.6847,0.6944,0.7131,0.72,0.7313,0.7318,0.7401,0.7336,0.7324,0.7323,0.7318,0.7329,0.7414,0.7416,0.7417,0.7418,0,0.6121,0.6142,0.6239,0.6346,0.6427,0.6514,0.6599,0.6651,0.6711,0.6791,0.691,0.6984,0.7133,0.7251,0.7368,0.7426,0.7434,0.7438,0.7464,0.7457,0.7435,0.7451,0.7207,0.7433,0.7431,0.743,0.7429,0.7429,0.6243,0.6323,0.6412,0.6521,0.6589,0.6669,0.6752,0.6808,0.6908,0.7031,0.7052,0.718,0.7274,0.7431,0.7493,0.7596,0.7577,0.7614,0.7624,0.7633,0.7639,0.7416,0.7617,0.7617,0.7617,0.7616,0.7616,0,0.6424,0.6482,0.6581,0.67,0.6786,0.6782,0.6877,0.695,0.7062,0.7147,0.7241,0.738,0.7495,0.7572,0.7689,0.7757,0.7763,0.7786,0.7783,0.7797,0.7647,0.7614,0.7779,0.7779,0.7779,0.7779,0.7779,0.7779,0.6529,0.6664,0.6696,0.6867,0.6925,0.7049,0.7104,0.7179,0.7247,0.74,0.7495,0.7544,0.7628,0.7751,0.7857,0.7877,0.7921,0.7945,0.7965,0.7824,0.7807,0.7791,0.776,0.7953,0.7953,0.8106,0.8108,0.8109]},{"header":{"parameterUnit":"m.s-1","parameterCategory":1,"la1":30.2991,"la2":30.254,"lo1":-89.0895,"lo2":-89.0444,"dy":0.0017,"dx":0.0017,"nx":28,"ny":28,"refTime":"2023-08-26T09:00:00:Z","depth":0,"parameterNumber":3,"parameterNumberName":"V-component_of_WINDS"},"data":[0,0,0,0,0,0,0,0,0,0,0,0,0,0,0,0,0,0,0,0,0,0,0,0,0,0,0,0,0,0,0,0,0,0,0,0,0,0,0,0,0,0,0,0,0,0,0,0,0,0,0,0,0,0,0,0,0,0,0.6619,0.6621,0,0.6776,0.6778,0.678,0.6692,0.6688,0.6683,0.6679,0.6839,0.6847,0.6855,0,0,0,0,0,0,0,0,0,0,0,0,0,0.624,0.6247,0.6619,0.6621,0.6623,0.6776,0.6778,0.678,0.6693,0.6687,0.6682,0.6677,0.6836,0.6846,0.6856,0,0,0,0,0,0,0,0,0,0,0,0,0,0.6402,0.625,0.6619,0.6598,0.6597,0.6776,0.6778,0.6781,0.6694,0.6687,0.6681,0.6675,0.6833,0.6845,0.6857,0.7065,0,0,0.6895,0.6901,0,0,0,0,0,0,0,0,0.6392,0.6416,0.6599,0.66,0.66,0.6708,0.6703,0.6876,0.6696,0.6657,0.6679,0.6672,0.6801,0.6815,0.6859,0.7072,0.7079,0.6897,0.6904,0.6909,0.6913,0,0,0,0,0,0,0,0.6381,0.6408,0.6681,0.6602,0.6602,0.6579,0.6595,0.6735,0.6764,0.666,0.6654,0.6674,0.6799,0.6847,0.6862,0.7081,0.6896,0.6907,0.6915,0.692,0.7468,0.7474,0,0,0,0,0,0,0.6372,0.64,0.6676,0.6686,0.6478,0.6592,0.6609,0.668,0.6762,0.6768,0.6679,0.6669,0.6829,0.6848,0.6867,0.7112,0.6909,0.6921,0.6928,0.7461,0.7469,0.7477,0,0,0,0,0,0,0.6364,0.6397,0.667,0.6541,0.6574,0.6605,0.6685,0.6686,0.6734,0.6776,0.6781,0.6723,0.6825,0.685,0.7015,0.7117,0.6927,0.6938,0.7452,0.7463,0.7473,0.7606,0,0,0,0,0,0,0.6354,0.6395,0.6475,0.6544,0.6581,0.6817,0.6691,0.6694,0.6756,0.6744,0.6819,0.6825,0.6822,0.6997,0.7028,0.7131,0.6948,0.7443,0.7457,0.747,0.7593,0.762,0.7643,0,0,0,0,0,0.634,0.6507,0.648,0.6514,0.6682,0.6823,0.6844,0.6838,0.6764,0.6844,0.6871,0.6822,0.7101,0.7015,0.7049,0.7157,0.7437,0.7453,0.7469,0.7582,0.7615,0.7643,0,0,0,0,0,0,0.6451,0.6516,0.6486,0.6681,0.6747,0.6808,0.6909,0.6874,0.6962,0.6947,0.6935,0.6952,0.7124,0.7157,0.706,0.7359,0.7257,0.7281,0.7332,0.7363,0.7388,0.7376,0.6958,0,0,0,0,0,0.6498,0.6607,0.6658,0.6824,0.6859,0.6879,0.694,0.6928,0.6996,0.7024,0.7063,0.713,0.7232,0.73,0.7396,0.7597,0.761,0.7688,0.7713,0.7733,0.7753,0.7858,0.7892,0.7529,0.7529,0.7529,0,0,0.6596,0.6645,0.6715,0.6848,0.6898,0.701,0.6903,0.7027,0.7109,0.7042,0.72,0.7231,0.7305,0.7488,0.7571,0.7521,0.7856,0.7754,0.777,0.7779,0.7878,0.7912,0.7943,0.754,0.7538,0.7536,0,0,0.6832,0.6881,0.7023,0.7075,0.7152,0.7163,0.7197,0.7263,0.7281,0.7439,0.739,0.7487,0.7665,0.7718,0.7768,0.8021,0.7978,0.8052,0.8184,0.8286,0.8315,0.834,0.8427,0.8459,0.8072,0.8073,0.8073,0,0.6944,0.7112,0.7101,0.7228,0.7286,0.723,0.7373,0.7424,0.7528,0.7569,0.7512,0.773,0.7776,0.7969,0.803,0.8074,0.811,0.8044,0.8312,0.8337,0.836,0.8443,0.8476,0.8081,0.808,0.8079,0.8079,0,0.7245,0.7361,0.7467,0.7568,0.7638,0.7773,0.778,0.7853,0.7835,0.7851,0.8011,0.8064,0.8168,0.8214,0.8198,0.8404,0.837,0.8313,0.821,0.8403,0.8481,0.8513,0.8093,0.809,0.8088,0.8086,0,0,0.7556,0.7647,0.7686,0.7729,0.7808,0.7898,0.8028,0.813,0.819,0.8264,0.8371,0.852,0.8467,0.8524,0.8513,0.8604,0.8796,0.8535,0.8536,0.8579,0.9022,0.9063,0.91,0.8768,0.8774,0.8779,0.9014,0,0.7795,0.8023,0.8015,0.8227,0.8333,0.828,0.8393,0.8452,0.8471,0.8562,0.8581,0.8687,0.861,0.8643,0.873,0.8754,0.8884,0.8737,0.8865,0.887,0.8847,0.9141,0.9186,0.9405,0.9045,0.905,0.9054,0,0.8105,0.8187,0.8409,0.8468,0.8512,0.8614,0.8705,0.8794,0.8859,0.8865,0.8928,0.8902,0.9031,0.8925,0.9102,0.9002,0.9054,0.9073,0.9081,0.9092,0.8973,0.9157,0.9476,0.9508,0.9102,0.9098,0.9095,0,0.8306,0.8472,0.8625,0.8665,0.8739,0.8811,0.8845,0.8904,0.8964,0.9044,0.9082,0.9176,0.9226,0.9298,0.9297,0.922,0.9474,0.9369,0.9481,0.9481,0.9537,0.9533,0.9866,0.9574,0.9573,0.9572,0.9572,0,0.8573,0.871,0.8716,0.8811,0.8962,0.8951,0.91,0.9127,0.9179,0.9276,0.9236,0.9328,0.9321,0.9413,0.9413,0.9557,0.9581,0.9588,0.9586,0.9591,0.959,0.9624,0.9608,0.9581,0.9579,0.9578,0.9576,0,0.8823,0.8833,0.8996,0.9052,0.9069,0.9178,0.9225,0.9313,0.9327,0.945,0.9478,0.9499,0.9605,0.9611,0.9734,0.9733,0.9907,0.989,0.9886,0.9881,0.9992,0.9981,1.0357,1.0405,1.0084,1.0087,1.0089,0,0.8992,0.9096,0.9162,0.9224,0.9262,0.9363,0.9423,0.9416,0.9481,0.956,0.9639,0.974,0.9821,0.9992,1.0018,1.011,1.0093,1.0218,1.0106,1.0106,1.0091,1.0084,1.0093,1.0239,1.0243,1.0246,1.0248,0,0.9289,0.9288,0.9377,0.9468,0.9542,0.9613,0.9679,0.9732,0.9731,0.9806,0.9913,0.9976,1.0099,1.02,1.0289,1.0322,1.0285,1.0283,1.0314,1.0319,1.0311,1.0314,0.9942,1.0275,1.0272,1.027,1.0269,1.0268,0.9502,0.959,0.965,0.975,0.9798,0.986,0.9945,0.9968,1.0058,1.0158,1.0147,1.0266,1.0324,1.044,1.048,1.0571,1.0528,1.0573,1.0584,1.0595,1.0605,1.0298,1.0588,1.0587,1.0586,1.0586,1.0585,0,0.9795,0.983,0.9922,1.0014,1.0092,1.005,1.012,1.0188,1.0292,1.0351,1.043,1.0552,1.0648,1.068,1.0773,1.0839,1.0824,1.0864,1.0858,1.0865,1.064,1.0603,1.0874,1.0874,1.0874,1.0874,1.0874,1.0874,0.9956,1.0102,1.0108,1.0277,1.031,1.0426,1.0469,1.0525,1.057,1.0708,1.0788,1.0808,1.0855,1.095,1.1035,1.1042,1.1077,1.1123,1.1123,1.0911,1.0882,1.0854,1.0819,1.1132,1.1132,1.134,1.1342,1.1344]}]]